Regional Weather Roundup
Issued by NWS

Home | Current Version | Previous Version | Graphics & Text | Print | Product List | Glossary On
Versions: 1 2 3 4 5 6 7 8 9 10 11 12 13 14 15 16 17 18 19 20 21 22 23 24 25 26 27 28 29 30 31 32 33 34 35 36 37 38 39 40 41 42 43 44 45 46 47 48 49 50
000
ASUS43 KOAX 301602
RWRNE

WEATHER ROUNDUP FOR NEBRASKA
NATIONAL WEATHER SERVICE OMAHA NE
1100 AM CDT THU OCT 30 2014

NOTES: SATELLITE DATA IS BEING USED TO AUGMENT CLOUD COVER ABOVE
       12000 FEET.
       "FAIR" INDICATES FEW OR NO CLOUDS BELOW 12,000 FEET WITH NO
       SIGNIFICANT WEATHER AND/OR OBSTRUCTIONS TO VISIBILITY.

  * THESE STATIONS DO NOT REPORT WEATHER SUCH AS RAIN...SNOW OR FOG.

NEZ001>004-019>022-054>056-301700-
NEBRASKA PANHANDLE

CITY           SKY/WX    TMP DP  RH WIND       PRES   REMARKS
SCOTTSBLUFF    SUNNY     47  29  49 NW9       30.35R
ALLIANCE       SUNNY     52  35  52 NW12      30.31R
CHADRON        SUNNY     52  31  44 W13       30.31S
KIMBALL        SUNNY     51  30  45 N8        30.34S
SIDNEY         SUNNY     54  32  43 NW12      30.35R
$$

NEZ057>060-069>072-079>082-301700-
SOUTHWEST NEBRASKA

CITY           SKY/WX    TMP DP  RH WIND       PRES   REMARKS
NORTH PLATTE   SUNNY     52  33  48 W14       30.27R
IMPERIAL       SUNNY     55  31  39 N16       30.30R
LEXINGTON      SUNNY     54  35  48 NW16      30.23R
MCCOOK         SUNNY     60  32  34 N21       30.26R
OGALLALA       SUNNY     54  32  44 NW18G25   30.30R
$$

NEZ005>010-023>029-035>040-094-301700-
NORTH CENTRAL NEBRASKA

CITY           SKY/WX    TMP DP  RH WIND       PRES   REMARKS
VALENTINE      SUNNY     50  35  56 NW21G28   30.25R
AINSWORTH      SUNNY     49  36  60 NW23G30   30.23R
BROKEN BOW     SUNNY     58  36  43 NW28G36   30.20R
O`NEILL        SUNNY     51  39  64 NW24G31   30.18R
ORD            SUNNY     55  37  50 NW17      30.17R
THEDFORD       SUNNY     55  34  46 N22G28    30.24S
$$

NEZ041-046>049-061>064-073>077-083>087-301700-
SOUTH CENTRAL NEBRASKA

CITY           SKY/WX    TMP DP  RH WIND       PRES   REMARKS
GRAND ISLAND   SUNNY     57  37  47 NW21      30.17R
AURORA         SUNNY     55  35  46 NW18      30.14S
HASTINGS       SUNNY     56  35  45 NW17      30.16S
HEBRON         SUNNY     59  36  41 N10G21    30.14S
HOLDREGE       SUNNY     55  33  44 NW14G20   30.21S
KEARNEY *      SUNNY     55  36  47 NW17      30.20R
YORK           SUNNY     55  39  54 NW20G25   30.12S
$$

NEZ011>018-030>034-042>045-301700-
NORTHEAST NEBRASKA

CITY           SKY/WX    TMP DP  RH WIND       PRES   REMARKS
NORFOLK        SUNNY     54  40  59 NW17G25   30.10R
ALBION         SUNNY     55  37  52 NW20G25   30.13R
BLAIR          SUNNY     55  38  51 NW12G18   30.06S
COLUMBUS *       N/A    N/A N/A N/A MISG        N/A
FREMONT        SUNNY     55  39  54 NW16      30.09R
TEKAMAH        SUNNY     56  39  53 NW16      30.07R
WAYNE          SUNNY     53  40  61 N20G25    30.11R
$$

NEZ050>053-065>068-078-088>093-301700-
SOUTHEAST NEBRASKA

CITY           SKY/WX    TMP DP  RH WIND       PRES   REMARKS
LINCOLN        SUNNY     58  40  51 NW14      30.11S
OMAHA EPPLEY   MOSUNNY   55  37  50 N14       30.06F
BEATRICE       SUNNY     57  40  54 NW14      30.10R
FALLS CITY     SUNNY     57  38  48 NW14      30.04R
NEBRASKA CITY  SUNNY     55  33  43 N13       30.06R
PLATTSMOUTH    SUNNY     54  34  47 NW14      30.06S
$$

NEZ044-045-051>053-067-301700-
OMAHA AREA

CITY           SKY/WX    TMP DP  RH WIND       PRES   REMARKS
OMAHA EPPLEY   MOSUNNY   55  37  50 N14       30.06F
BLAIR          SUNNY     55  38  51 NW12G18   30.06S
FREMONT        SUNNY     55  39  54 NW16      30.09R
MILLARD        SUNNY     54  38  56 NW15      30.07R
PLATTSMOUTH    SUNNY     54  34  47 NW14      30.06S
WAHOO          FAIR      55  37  49 NW14G21   30.09R
$$



USA.gov is the U.S. government's official web portal to all federal, state and local government web resources and services.